Location: Bathurst
(33.4193°S, 149.5775°E)
Time: 17:48:52
(UTC+10:00)

ISS - Pass Details

Date: 28 May 2018
Orbit: 402 x 406 km, 51.6° (Epoch: 20 June)

Event Time Altitude Azimuth Distance (km) Brightness Sun altitude
Exits shadow 04:54:49 17° 18° (NNE) 1,126 -1.3 -24.5°
Maximum altitude 04:56:11 21° 51° (NE) 969 -1.3 -24.3°
Drops below altitude 10° 04:58:47 10° 103° (ESE) 1,480 -0.1 -23.7°
Sets 05:01:11 0° 119° (ESE) 2,350 0.8 -23.2°
